Theta_e
319 319 320 320 320 321 323 323 321 319 318 318 320 319 318 319 318 317 317 320 317 317 317 316 316 318 316 315 315 311 310 309
319 319 319 318 319 320 320 321 321 320 319 319 320 320 320 319 318 318 319 321 317 317 317 317 317 317 318 318 315 313 311 309
320 319 318 318 318 318 319 320 321 320 320 320 321 319 321 321 320 319 320 321 317 317 317 317 318 317 317 318 317 316 314 312
320 318 318 318 318 319 319 319 320 320 320 320 321 320 319 320 321 320 319 319 317 317 317 318 319 318 318 320 319 318 315 313
320 317 317 317 318 318 319 318 319 319 320 320 321 318 317 319 320 320 318 317 318 319 320 319 320 320 320 321 321 319 317 316
322 318 317 317 317 316 318 318 318 319 320 320 319 318 318 320 319 320 319 320 320 317 316 316 317 318 319 322 321 320 319 317
322 319 317 317 316 316 316 318 317 318 318 319 319 318 318 316 317 319 317 316 317 316 316 317 316 315 316 318 320 321 321 317
323 321 318 316 314 315 315 317 318 316 317 318 317 317 318 316 316 318 319 315 315 315 315 315 314 314 314 315 316 319 320 321
324 322 319 317 315 315 315 316 317 317 316 316 317 318 317 318 317 317 318 316 315 315 315 315 315 315 315 315 316 315 317 320
324 322 320 318 317 316 315 316 317 317 317 316 315 315 316 316 317 316 317 317 316 315 315 315 314 315 316 316 317 315 318 319
323 324 320 319 318 316 316 316 316 316 316 316 316 315 315 315 315 315 316 316 316 316 316 315 315 314 315 315 318 318 319 318
322 324 322 320 318 317 316 315 316 316 316 316 316 315 315 314 314 314 315 315 316 316 315 316 316 316 318 320 319 319 319 320
320 321 323 321 319 318 316 316 315 315 315 315 315 315 315 314 315 315 315 315 316 316 316 316 315 317 319 319 319 320 321 320
320 318 321 322 321 319 318 317 316 315 315 315 315 314 314 314 315 315 315 315 316 317 318 318 319 319 319 319 318 318 321 320
316 319 320 321 321 320 319 318 317 316 315 315 315 315 314 314 314 314 314 315 316 316 317 318 319 319 319 319 318 321 319 317
316 316 320 321 320 321 320 320 319 317 316 316 316 315 315 315 315 315 315 316 316 317 318 319 319 319 319 319 319 320 316 317
317 316 315 318 320 321 321 321 320 319 318 317 317 317 316 316 316 316 316 317 318 318 319 319 320 320 319 320 319 318 316 315
316 316 316 317 318 320 321 321 321 320 320 319 318 317 316 316 317 317 317 318 318 319 320 320 320 321 320 320 319 316 313 312
315 316 316 315 315 317 319 320 321 321 321 320 319 319 318 318 317 317 318 319 319 320 320 320 320 319 319 319 318 311 310 308
Wind_Speed
12 11 10 10 10 13 18 26 32 27 30 28 26 28 28 32 34 35 31 28 33 33 31 30 27 25 24 22 22 21 19 18
12 12 12 12 11 11 14 16 32 30 31 28 26 29 28 28 34 32 36 29 34 33 31 28 27 27 26 23 21 21 18 17
13 16 15 15 14 14 13 17 25 32 31 30 27 33 29 24 27 33 38 35 37 35 30 29 27 27 25 23 24 19 12 20
15 17 19 18 18 17 16 18 28 33 31 29 24 31 26 26 30 28 27 36 36 33 30 29 24 26 25 25 26 23 14 20
16 18 21 22 20 18 17 16 23 24 34 33 36 36 30 30 32 33 30 31 30 31 28 17 22 26 26 24 23 29 23 16
19 19 25 23 22 22 21 19 24 28 31 30 31 31 31 23 31 31 31 31 33 33 26 29 28 22 24 20 22 27 27 20
16 22 23 22 22 21 23 25 24 28 29 30 31 30 31 24 33 35 34 30 33 34 34 31 34 31 26 23 23 22 24 25
17 19 21 23 24 25 25 26 27 28 29 28 32 35 34 35 31 36 39 35 36 37 35 38 43 35 29 26 23 22 22 24
19 20 23 27 28 29 27 28 28 29 30 31 33 32 36 37 38 35 37 37 37 36 40 39 39 37 34 32 32 29 24 25
18 18 25 27 29 32 33 32 31 33 34 34 33 35 34 34 33 33 34 35 35 38 41 40 38 40 37 32 30 32 28 26
14 16 23 26 28 31 31 32 34 34 34 36 37 36 34 33 32 34 35 35 35 35 41 41 39 38 39 35 29 29 31 32
13 14 21 24 24 27 30 32 33 32 33 33 34 37 38 36 36 35 36 34 33 34 33 32 33 35 35 31 32 31 32 35
9 12 18 23 27 28 32 32 32 35 35 34 34 33 35 36 39 41 39 39 34 35 34 37 41 39 38 37 32 33 32 33
6 10 14 18 24 27 31 33 36 32 32 33 33 36 36 41 48 48 38 40 41 35 35 36 36 38 39 41 38 37 36 34
5 8 12 17 22 26 29 31 32 33 34 34 35 38 44 43 37 35 39 40 38 41 41 38 36 37 39 43 43 41 37 36
8 9 11 11 17 21 24 26 29 32 32 34 40 41 37 36 35 36 38 38 38 37 36 37 37 34 35 35 36 38 36 36
12 9 9 12 18 22 23 25 28 31 32 39 33 30 30 33 34 35 33 35 34 34 35 34 32 36 38 39 36 36 39 36
12 13 11 11 19 25 25 29 24 30 33 31 29 29 30 31 30 30 33 34 32 33 33 32 35 35 38 40 36 37 33 33
11 11 10 17 19 18 24 19 26 28 28 26 25 27 27 24 24 28 29 28 28 30 32 35 35 35 39 37 32 34 30 27
Wind_Direction
194 199 200 200 196 196 181 191 189 178 176 175 181 177 184 185 182 191 201 204 193 186 184 182 179 178 184 179 178 184 182 177
198 194 195 198 198 198 200 183 188 178 178 176 176 182 183 190 196 200 207 211 201 195 192 188 185 189 194 190 189 190 187 184
194 192 192 196 193 192 195 195 183 182 179 179 183 187 191 200 203 211 220 210 202 199 197 198 196 198 201 201 202 198 195 193
191 195 199 197 197 191 188 187 186 181 179 181 175 171 190 203 205 203 203 205 201 200 199 200 202 209 213 214 216 213 202 205
188 191 198 202 200 192 195 184 187 178 180 178 176 175 186 199 191 192 194 196 199 204 198 192 227 228 221 223 224 225 220 209
193 189 195 200 197 195 189 186 182 186 180 178 178 183 196 201 190 186 192 196 198 207 220 216 240 244 239 234 234 230 233 226
196 191 186 195 193 196 190 182 184 182 184 184 181 184 190 192 191 189 197 210 202 205 211 213 223 228 233 239 241 242 240 236
189 184 185 188 193 192 193 190 186 186 187 190 194 195 198 195 198 197 202 213 211 211 210 212 223 233 240 246 249 247 245 244
194 193 189 190 191 191 192 196 195 192 192 194 197 198 201 203 207 207 207 216 216 220 223 226 236 243 251 255 257 256 261 257
200 192 195 193 192 193 193 195 199 199 198 198 201 202 204 205 210 215 217 220 225 227 230 236 247 253 255 256 255 257 259 258
200 197 200 202 198 196 197 199 201 202 203 202 204 206 210 212 214 219 223 226 231 236 242 245 249 255 259 258 250 254 253 261
208 205 199 201 199 199 200 202 204 205 205 208 206 208 210 213 217 221 224 228 231 238 241 244 245 248 244 240 245 250 259 260
210 205 199 196 199 199 203 204 208 208 206 206 211 210 212 213 217 223 224 229 232 237 237 239 242 241 241 239 244 254 253 256
204 198 205 205 203 202 204 204 208 207 207 207 207 212 215 218 220 219 217 223 227 227 228 231 234 240 247 252 256 258 260 252
224 214 216 214 209 206 207 206 205 202 205 205 208 210 213 217 221 218 218 220 220 223 228 233 236 240 241 248 251 251 247 249
219 228 229 222 216 214 218 212 204 202 204 208 215 216 216 216 217 216 220 225 226 226 229 233 236 236 235 238 242 241 237 242
279 251 220 219 218 217 218 214 206 200 206 214 219 219 218 215 216 217 219 223 228 228 230 232 232 236 240 240 235 235 236 231
272 263 246 229 220 215 213 213 202 203 210 216 213 213 218 221 222 222 224 227 228 231 232 233 236 240 244 245 243 235 226 221
274 256 244 244 251 235 229 209 202 204 214 216 211 209 217 221 223 226 227 230 230 231 234 235 235 236 240 246 245 218 217 212